EJU49NU LFMN-LIEO

Flight info

Callsign EJU49NU
Flight time 0h 53m
Altitude 29000
Route VAREK DCT LOKDU DCT PELOS DCT IPROM DCT MALAV DCT ARSIK/N0341F190 P167 EKPOD
Aircraft A320/M-SDE2E3FGHIJ1RWXYZ/LB1

Departure

Time 2026-05-07 19:04
Airport Nice-Côte d'Azur Airport (LFMN)

Arrival

Time 2026-05-07 19:57
Airport Olbia Costa Smeralda Airport (LIEO)
Time Latitude Longitude Altitude Speed Heading
2026-05-07 18:48 43.66408 7.21175 22 ft 0 kts 13°
2026-05-07 18:49 43.66404 7.21173 22 ft 2 kts 13°
2026-05-07 18:49 43.66388 7.21168 23 ft 2 kts 13°
2026-05-07 18:49 43.66373 7.21163 24 ft 2 kts 13°
2026-05-07 18:49 43.66356 7.21159 24 ft 2 kts 20°
2026-05-07 18:50 43.66344 7.21145 23 ft 1 kts 89°
2026-05-07 18:56 43.66344 7.21174 22 ft 5 kts 90°
2026-05-07 18:56 43.66344 7.21212 22 ft 4 kts 90°
2026-05-07 18:57 43.66344 7.21263 22 ft 7 kts 89°
2026-05-07 18:57 43.66339 7.21336 22 ft 7 kts 113°
2026-05-07 18:57 43.66290 7.21353 22 ft 11 kts 201°
2026-05-07 18:57 43.66230 7.21276 22 ft 11 kts 227°
2026-05-07 18:58 43.66181 7.21202 22 ft 10 kts 226°
2026-05-07 18:58 43.66136 7.21140 22 ft 9 kts 225°
2026-05-07 18:58 43.66082 7.21066 22 ft 14 kts 225°
2026-05-07 18:58 43.66012 7.20969 22 ft 14 kts 225°
2026-05-07 18:59 43.65948 7.20881 22 ft 12 kts 225°
2026-05-07 18:59 43.65892 7.20805 22 ft 11 kts 222°
2026-05-07 18:59 43.65842 7.20741 22 ft 9 kts 222°
2026-05-07 18:59 43.65799 7.20687 22 ft 8 kts 223°
2026-05-07 19:00 43.65754 7.20629 25 ft 11 kts 223°
2026-05-07 19:00 43.65690 7.20540 22 ft 15 kts 225°
2026-05-07 19:00 43.65605 7.20421 22 ft 19 kts 225°
2026-05-07 19:00 43.65509 7.20289 22 ft 20 kts 224°
2026-05-07 19:01 43.65414 7.20181 23 ft 15 kts 197°
2026-05-07 19:01 43.65322 7.20238 22 ft 16 kts 137°
2026-05-07 19:01 43.65241 7.20349 22 ft 13 kts 135°
2026-05-07 19:01 43.65170 7.20447 22 ft 15 kts 135°
2026-05-07 19:02 43.65075 7.20515 22 ft 17 kts 178°
2026-05-07 19:02 43.64973 7.20437 22 ft 18 kts 225°
2026-05-07 19:02 43.64878 7.20310 22 ft 20 kts 226°
2026-05-07 19:02 43.64792 7.20188 22 ft 16 kts 224°
2026-05-07 19:03 43.64729 7.20188 23 ft 9 kts 121°
2026-05-07 19:03 43.64727 7.20323 23 ft 25 kts 53°
2026-05-07 19:03 43.64988 7.20673 22 ft 87 kts 46°
2026-05-07 19:03 43.65564 7.21478 25 ft 146 kts 45°
2026-05-07 19:04 43.66350 7.22610 279 ft 172 kts 47°
2026-05-07 19:04 43.67055 7.23892 973 ft 171 kts 75°
2026-05-07 19:04 43.66919 7.25509 1531 ft 183 kts 122°
2026-05-07 19:04 43.65976 7.26841 1915 ft 206 kts 138°
2026-05-07 19:05 43.64861 7.28180 2429 ft 217 kts 139°
2026-05-07 19:05 43.63706 7.29559 3130 ft 221 kts 139°
2026-05-07 19:05 43.62543 7.30959 3930 ft 223 kts 139°
2026-05-07 19:05 43.61371 7.32387 4744 ft 226 kts 139°
2026-05-07 19:06 43.60177 7.33818 5525 ft 229 kts 145°
2026-05-07 19:06 43.57269 7.35539 7077 ft 231 kts 160°
2026-05-07 19:06 43.55749 7.36301 7839 ft 234 kts 159°
2026-05-07 19:07 43.54215 7.37077 8603 ft 236 kts 159°
2026-05-07 19:07 43.52664 7.37863 9380 ft 239 kts 159°
2026-05-07 19:07 43.51081 7.38664 9985 ft 251 kts 159°
2026-05-07 19:07 43.49368 7.39530 10273 ft 275 kts 159°
2026-05-07 19:08 43.47495 7.40480 10535 ft 299 kts 160°
2026-05-07 19:08 43.45467 7.41509 10811 ft 321 kts 160°
2026-05-07 19:08 43.43341 7.42588 11405 ft 329 kts 160°
2026-05-07 19:08 43.41204 7.43670 12133 ft 334 kts 160°
2026-05-07 19:09 43.39014 7.44776 12899 ft 337 kts 161°
2026-05-07 19:09 43.36804 7.45891 13675 ft 340 kts 160°
2026-05-07 19:09 43.34574 7.47016 14354 ft 343 kts 161°
2026-05-07 19:09 43.32323 7.48155 14999 ft 347 kts 161°
2026-05-07 19:10 43.30046 7.49304 15639 ft 350 kts 161°
2026-05-07 19:10 43.27748 7.50459 16267 ft 354 kts 161°
2026-05-07 19:10 43.25450 7.51610 16895 ft 358 kts 162°
2026-05-07 19:10 43.23095 7.52785 17520 ft 362 kts 162°
2026-05-07 19:11 43.20716 7.53977 18125 ft 366 kts 162°
2026-05-07 19:11 43.18312 7.55187 18682 ft 370 kts 162°
2026-05-07 19:11 43.15887 7.56405 19237 ft 373 kts 162°
2026-05-07 19:11 43.13442 7.57629 19791 ft 376 kts 162°
2026-05-07 19:12 43.10976 7.58860 20336 ft 379 kts 163°
2026-05-07 19:12 43.08487 7.60100 20876 ft 382 kts 163°
2026-05-07 19:12 43.05982 7.61348 21422 ft 386 kts 163°
2026-05-07 19:12 43.03482 7.62589 21940 ft 389 kts 163°
2026-05-07 19:13 43.00927 7.63857 22474 ft 392 kts 163°
2026-05-07 19:13 42.98349 7.65137 23002 ft 396 kts 163°
2026-05-07 19:13 42.95747 7.66426 23515 ft 400 kts 163°
2026-05-07 19:13 42.93124 7.67729 23948 ft 402 kts 164°
2026-05-07 19:14 42.90488 7.69036 24396 ft 405 kts 164°
2026-05-07 19:14 42.87835 7.70353 24856 ft 406 kts 164°
2026-05-07 19:14 42.85172 7.71673 25281 ft 408 kts 165°
2026-05-07 19:14 42.82531 7.72976 25707 ft 410 kts 165°
2026-05-07 19:15 42.79844 7.74299 26127 ft 411 kts 165°
2026-05-07 19:15 42.77146 7.75625 26540 ft 413 kts 165°
2026-05-07 19:15 42.74437 7.76961 26927 ft 415 kts 165°
2026-05-07 19:15 42.71719 7.78300 27333 ft 416 kts 165°
2026-05-07 19:16 42.68996 7.79634 27733 ft 418 kts 166°
2026-05-07 19:16 42.66257 7.80975 28128 ft 419 kts 166°
2026-05-07 19:16 42.63508 7.82323 28510 ft 421 kts 166°
2026-05-07 19:16 42.60748 7.83679 28874 ft 423 kts 166°
2026-05-07 19:17 42.58022 7.85017 28975 ft 418 kts 166°
2026-05-07 19:17 42.55345 7.86338 28993 ft 403 kts 166°
2026-05-07 19:17 42.50036 7.88947 28987 ft 408 kts 166°
2026-05-07 19:18 42.44693 7.91549 28994 ft 408 kts 166°
2026-05-07 19:18 42.39347 7.94147 28987 ft 408 kts 166°
2026-05-07 19:19 42.34037 7.96729 28991 ft 408 kts 166°
2026-05-07 19:19 42.28601 7.98489 28962 ft 398 kts 179°
2026-05-07 19:20 42.23101 7.99331 28967 ft 398 kts 179°
2026-05-07 19:20 42.17590 8.00200 28972 ft 399 kts 179°
2026-05-07 19:21 42.12114 8.01064 28960 ft 399 kts 179°
2026-05-07 19:21 42.06602 8.01933 28964 ft 399 kts 178°
2026-05-07 19:22 42.01092 8.02804 28988 ft 398 kts 178°
2026-05-07 19:22 41.95592 8.03664 28983 ft 398 kts 178°
2026-05-07 19:23 41.90089 8.04537 28969 ft 398 kts 178°
2026-05-07 19:23 41.84640 8.05418 28978 ft 397 kts 178°
2026-05-07 19:24 41.79155 8.06288 28977 ft 397 kts 178°
2026-05-07 19:24 41.73676 8.07147 28975 ft 396 kts 178°
2026-05-07 19:25 41.69122 8.07863 28962 ft 396 kts 177°
2026-05-07 19:25 41.62770 8.08855 28965 ft 395 kts 177°
2026-05-07 19:26 41.57315 8.09710 28962 ft 395 kts 177°
2026-05-07 19:26 41.51860 8.10578 28961 ft 395 kts 177°
2026-05-07 19:27 41.47324 8.11288 28949 ft 395 kts 177°
2026-05-07 19:27 41.40985 8.12279 28952 ft 395 kts 177°
2026-05-07 19:28 41.35526 8.13129 28954 ft 395 kts 177°
2026-05-07 19:28 41.30989 8.13839 28950 ft 395 kts 177°
2026-05-07 19:29 41.25524 8.14687 28936 ft 396 kts 177°
2026-05-07 19:29 41.20050 8.15537 28940 ft 396 kts 177°
2026-05-07 19:30 41.14701 8.17443 28944 ft 407 kts 158°
2026-05-07 19:30 41.09852 8.21319 28944 ft 409 kts 155°
2026-05-07 19:31 41.04665 8.24232 28933 ft 404 kts 164°
2026-05-07 19:31 40.99422 8.26920 28938 ft 404 kts 164°
2026-05-07 19:32 40.94173 8.29615 28939 ft 405 kts 164°
2026-05-07 19:32 40.88961 8.32294 28941 ft 404 kts 164°
2026-05-07 19:33 40.83719 8.34997 28913 ft 405 kts 163°
2026-05-07 19:33 40.78533 8.37932 28917 ft 406 kts 161°
2026-05-07 19:34 40.73370 8.41005 28531 ft 407 kts 161°
2026-05-07 19:34 40.70784 8.42533 28300 ft 406 kts 161°
2026-05-07 19:34 40.68258 8.44094 28030 ft 398 kts 155°
2026-05-07 19:35 40.66024 8.46215 27766 ft 397 kts 142°
2026-05-07 19:35 40.64232 8.48902 27507 ft 396 kts 129°
2026-05-07 19:35 40.62932 8.52091 27253 ft 396 kts 116°
2026-05-07 19:35 40.61996 8.55488 26999 ft 393 kts 115°
2026-05-07 19:36 40.61074 8.58860 26755 ft 390 kts 115°
2026-05-07 19:36 40.60159 8.62199 26368 ft 386 kts 115°
2026-05-07 19:36 40.59244 8.65512 25898 ft 384 kts 115°
2026-05-07 19:36 40.58331 8.68814 25402 ft 384 kts 114°
2026-05-07 19:37 40.57433 8.72054 24903 ft 383 kts 114°
2026-05-07 19:37 40.56521 8.75343 24404 ft 383 kts 114°
2026-05-07 19:37 40.55606 8.78635 23896 ft 383 kts 114°
2026-05-07 19:37 40.54691 8.81928 23355 ft 384 kts 114°
2026-05-07 19:38 40.53775 8.85222 22801 ft 383 kts 113°
2026-05-07 19:38 40.52863 8.88497 22306 ft 380 kts 113°
2026-05-07 19:38 40.51954 8.91756 21806 ft 379 kts 113°
2026-05-07 19:38 40.51064 8.94955 21323 ft 377 kts 113°
2026-05-07 19:39 40.50168 8.98174 20905 ft 373 kts 113°
2026-05-07 19:39 40.49275 9.01370 20430 ft 372 kts 112°
2026-05-07 19:39 40.48386 9.04535 19967 ft 370 kts 112°
2026-05-07 19:39 40.47499 9.07681 19648 ft 364 kts 112°
2026-05-07 19:40 40.46625 9.10785 19207 ft 361 kts 112°
2026-05-07 19:40 40.45771 9.13854 18527 ft 355 kts 110°
2026-05-07 19:40 40.45325 9.16996 18015 ft 347 kts 94°
2026-05-07 19:40 40.45527 9.20054 17591 ft 336 kts 78°
2026-05-07 19:41 40.46300 9.22905 17060 ft 330 kts 63°
2026-05-07 19:41 40.47524 9.25431 16393 ft 327 kts 57°
2026-05-07 19:41 40.48809 9.27904 15925 ft 326 kts 57°
2026-05-07 19:41 40.50077 9.30336 15726 ft 319 kts 57°
2026-05-07 19:42 40.51317 9.32708 15598 ft 310 kts 57°
2026-05-07 19:42 40.52529 9.35003 15473 ft 301 kts 56°
2026-05-07 19:42 40.53698 9.37209 15293 ft 296 kts 56°
2026-05-07 19:42 40.54892 9.39463 14643 ft 308 kts 57°
2026-05-07 19:43 40.56123 9.41797 14193 ft 311 kts 56°
2026-05-07 19:43 40.57354 9.44135 13856 ft 310 kts 57°
2026-05-07 19:43 40.58580 9.46459 13525 ft 308 kts 57°
2026-05-07 19:43 40.59799 9.48769 13150 ft 307 kts 57°
2026-05-07 19:44 40.61021 9.51067 12796 ft 306 kts 54°
2026-05-07 19:44 40.62548 9.52971 12299 ft 305 kts 33°
2026-05-07 19:44 40.64518 9.53997 11875 ft 304 kts 11°
2026-05-07 19:44 40.66587 9.54008 11249 ft 303 kts 348°
2026-05-07 19:45 40.68529 9.52979 10591 ft 302 kts 325°
2026-05-07 19:45 40.70008 9.51070 10096 ft 294 kts 302°
2026-05-07 19:45 40.70845 9.48709 9754 ft 278 kts 282°
2026-05-07 19:45 40.71034 9.46229 9218 ft 269 kts 262°
2026-05-07 19:46 40.70608 9.43870 8647 ft 263 kts 248°
2026-05-07 19:46 40.69994 9.41604 8044 ft 261 kts 243°
2026-05-07 19:46 40.69134 9.39531 7464 ft 256 kts 232°
2026-05-07 19:46 40.68123 9.37627 7039 ft 257 kts 232°
2026-05-07 19:47 40.67117 9.35723 6858 ft 248 kts 232°
2026-05-07 19:47 40.66140 9.33871 6594 ft 245 kts 232°
2026-05-07 19:47 40.65173 9.32037 6259 ft 243 kts 233°
2026-05-07 19:47 40.64215 9.30221 5998 ft 240 kts 233°
2026-05-07 19:48 40.63257 9.28406 5979 ft 242 kts 233°
2026-05-07 19:48 40.62296 9.26584 5978 ft 243 kts 232°
2026-05-07 19:48 40.61499 9.24666 5972 ft 237 kts 251°
2026-05-07 19:48 40.61359 9.22545 5970 ft 239 kts 278°
2026-05-07 19:49 40.61959 9.20521 5967 ft 240 kts 306°
2026-05-07 19:49 40.63194 9.19064 5975 ft 240 kts 331°
2026-05-07 19:49 40.64655 9.17979 5971 ft 242 kts 331°
2026-05-07 19:49 40.66116 9.16891 5970 ft 242 kts 331°
2026-05-07 19:50 40.67593 9.15830 5972 ft 242 kts 339°
2026-05-07 19:50 40.69226 9.15492 5973 ft 238 kts
2026-05-07 19:50 40.70750 9.16227 5974 ft 233 kts 39°
2026-05-07 19:50 40.71890 9.17680 5976 ft 231 kts 54°
2026-05-07 19:51 40.72836 9.19383 5972 ft 231 kts 58°
2026-05-07 19:51 40.73749 9.21127 5971 ft 231 kts 58°
2026-05-07 19:51 40.74666 9.22871 5780 ft 231 kts 57°
2026-05-07 19:51 40.75583 9.24606 5467 ft 230 kts 57°
2026-05-07 19:52 40.76499 9.26340 5125 ft 230 kts 57°
2026-05-07 19:52 40.77410 9.28067 4785 ft 228 kts 57°
2026-05-07 19:52 40.78316 9.29783 4418 ft 229 kts 57°
2026-05-07 19:52 40.79224 9.31506 4060 ft 228 kts 57°
2026-05-07 19:53 40.80122 9.33209 3715 ft 222 kts 57°
2026-05-07 19:53 40.80967 9.34812 3384 ft 210 kts 57°
2026-05-07 19:53 40.81779 9.36354 3097 ft 198 kts 57°
2026-05-07 19:53 40.82543 9.37807 2772 ft 188 kts 57°
2026-05-07 19:54 40.83265 9.39179 2481 ft 175 kts 57°
2026-05-07 19:54 40.83923 9.40431 2223 ft 158 kts 57°
2026-05-07 19:54 40.84525 9.41577 1985 ft 146 kts 56°
2026-05-07 19:54 40.85089 9.42651 1764 ft 140 kts 56°
2026-05-07 19:55 40.85643 9.43706 1545 ft 139 kts 55°
2026-05-07 19:55 40.86183 9.44739 1317 ft 138 kts 56°
2026-05-07 19:55 40.86735 9.45782 950 ft 139 kts 54°
2026-05-07 19:55 40.87308 9.46790 739 ft 136 kts 54°
2026-05-07 19:56 40.87827 9.47831 636 ft 135 kts 58°
2026-05-07 19:56 40.88344 9.48879 445 ft 136 kts 54°
2026-05-07 19:56 40.88893 9.49899 238 ft 137 kts 54°
2026-05-07 19:56 40.89427 9.50916 53 ft 134 kts 54°
2026-05-07 19:57 40.89882 9.51782 36 ft 91 kts 55°
2026-05-07 19:57 40.90153 9.52291 33 ft 52 kts 56°
2026-05-07 19:57 40.90280 9.52540 31 ft 22 kts 56°
2026-05-07 19:57 40.90371 9.52718 29 ft 24 kts 56°
2026-05-07 19:58 40.90455 9.52883 29 ft 17 kts 56°
2026-05-07 19:58 40.90517 9.52927 26 ft 9 kts 345°
2026-05-07 19:58 40.90559 9.52900 28 ft 5 kts 319°
2026-05-07 19:58 40.90572 9.52872 28 ft 3 kts 294°
2026-05-07 19:59 40.90575 9.52823 29 ft 7 kts 264°
2026-05-07 19:59 40.90567 9.52765 29 ft 6 kts 258°
2026-05-07 19:59 40.90551 9.52691 30 ft 13 kts 251°
2026-05-07 19:59 40.90497 9.52574 31 ft 15 kts 236°
2026-05-07 20:00 40.90444 9.52473 31 ft 13 kts 234°
2026-05-07 20:00 40.90394 9.52380 32 ft 14 kts 234°
2026-05-07 20:00 40.90325 9.52253 33 ft 20 kts 234°
2026-05-07 20:00 40.90240 9.52085 34 ft 23 kts 238°
2026-05-07 20:01 40.90178 9.51936 35 ft 15 kts 261°
2026-05-07 20:01 40.90198 9.51794 36 ft 17 kts 276°
2026-05-07 20:01 40.90128 9.51666 37 ft 19 kts 230°
2026-05-07 20:01 40.90113 9.51622 37 ft 1 kts 278°
2026-05-07 20:02 40.90121 9.51607 37 ft 3 kts 293°
2026-05-07 20:02 40.90132 9.51568 35 ft 6 kts 306°
2026-05-07 20:02 40.90175 9.51527 36 ft 4 kts 326°
2026-05-07 20:02 40.90176 9.51527 36 ft 0 kts 326°